SCP
0 1 1 1 1 1 1 0 0 0 0 0 0 0 0 1 1 0 0 0 0 0 0 0 0 0 0 0 0 0 0 0 0 0 0 0 0 0 0 0 0 0 0
1 1 1 1 1 1 1 0 0 0 0 0 0 0 0 0 0 0 0 0 0 0 0 0 0 0 0 0 0 0 0 0 0 0 0 0 0 0 0 0 0 0 0
1 1 1 1 1 1 1 0 0 0 0 0 0 0 0 0 0 0 0 0 0 0 0 0 0 0 0 0 0 0 0 0 0 0 0 0 0 0 0 0 0 0 0
1 1 1 1 1 1 1 1 1 0 0 0 0 0 0 0 0 0 0 0 0 0 0 0 0 0 0 0 0 0 0 0 0 0 0 0 0 0 0 0 0 0 0
1 1 1 1 1 1 1 1 1 1 1 1 0 0 0 0 0 0 0 0 0 0 0 0 0 0 0 0 0 0 0 0 0 0 0 0 0 0 0 0 0 0 0
1 1 1 1 1 1 1 1 1 1 0 0 0 0 0 0 0 1 0 0 0 0 0 0 0 0 0 0 0 0 0 0 0 0 0 0 0 0 0 0 0 0 0
1 1 0 1 1 1 1 1 1 1 0 0 0 0 0 0 0 0 0 0 0 0 0 0 0 0 0 0 0 0 0 0 0 0 0 0 0 0 0 0 0 0 0
1 1 0 1 1 1 1 1 1 1 0 0 0 0 0 0 0 0 1 1 1 0 0 0 1 0 0 0 0 0 0 0 0 0 0 0 0 0 0 0 0 0 0
1 1 1 1 1 1 1 1 1 0 0 0 0 0 1 1 1 1 1 1 1 0 0 1 0 0 0 0 0 0 0 0 0 0 0 0 0 0 0 0 0 0 1
1 1 1 1 1 1 1 1 0 0 0 0 0 0 1 1 1 1 1 1 1 1 1 1 0 0 0 0 0 0 0 0 0 0 0 0 0 0 0 0 0 0 1
0 1 1 1 1 1 1 1 1 0 0 0 0 1 1 1 1 1 0 0 0 0 1 0 0 0 0 0 0 0 0 0 0 0 0 0 0 0 0 0 0 0 0
0 0 0 1 1 1 1 1 1 1 1 1 1 1 1 1 1 1 0 0 0 0 0 0 0 0 0 0 0 0 0 0 0 0 0 0 0 0 0 0 0 0 0
0 0 0 0 1 1 1 2 2 2 1 1 1 1 1 1 1 1 1 0 0 0 0 0 0 0 0 0 0 0 0 0 0 0 0 0 0 0 0 0 0 0 0
0 0 0 0 0 1 1 2 2 2 2 2 1 1 1 1 1 1 1 1 0 0 0 0 0 0 0 0 0 0 0 0 0 0 0 0 0 0 0 0 0 0 0
0 0 0 0 0 0 1 2 2 3 2 2 2 2 2 2 1 1 1 1 0 0 0 0 0 0 0 0 0 0 0 0 0 0 0 0 0 0 0 0 0 0 0
0 0 0 0 0 0 1 1 2 3 3 3 2 2 2 2 2 1 1 1 0 0 0 0 0 0 0 0 0 0 0 0 0 0 0 0 0 0 0 0 0 0 0
0 0 0 0 0 0 0 1 1 2 3 3 3 2 2 2 2 2 1 1 0 0 0 0 0 0 0 0 0 0 0 0 0 0 0 0 0 0 0 0 0 0 0
0 0 0 0 0 0 0 1 1 1 2 3 3 3 2 2 2 2 1 1 0 0 0 0 0 0 0 0 0 0 0 0 0 0 0 0 0 0 0 0 0 0 0
0 0 0 0 0 0 0 0 1 1 2 3 3 3 2 2 2 1 1 0 0 0 0 0 0 0 0 0 0 0 0 0 0 0 0 0 0 0 0 0 0 0 0
0 0 0 0 0 0 0 0 0 1 1 2 3 3 2 2 1 1 0 0 0 0 0 0 0 0 0 0 0 0 0 0 0 0 0 0 0 0 0 0 0 0 0
0 0 0 0 0 0 0 0 0 0 1 2 2 3 2 2 1 1 0 0 0 0 0 0 0 0 0 0 0 0 0 0 0 0 0 0 0 0 0 0 0 0 0
0 0 0 0 0 0 0 0 0 0 0 1 2 2 2 2 2 1 0 0 0 0 0 0 0 0 0 0 0 0 0 0 0 0 0 0 0 0 0 0 0 0 0
0 0 0 0 0 0 0 0 0 0 0 1 2 2 2 2 2 1 0 0 0 0 0 0 0 0 0 0 0 0 0 0 0 0 0 0 0 0 0 0 0 0 0
0 0 0 0 0 0 0 0 0 0 0 0 1 2 2 2 2 1 1 0 0 0 0 0 0 0 0 0 0 0 0 0 0 0 0 0 0 0 0 0 0 0 0
0 0 0 0 0 0 0 0 0 0 0 0 1 2 2 2 2 1 1 0 0 0 0 0 0 0 0 0 0 0 0 0 0 0 0 0 0 0 0 0 0 0 0
0 0 0 0 0 0 0 0 0 0 0 0 1 2 2 2 2 2 1 0 0 0 0 0 0 0 0 0 0 0 0 0 0 0 0 0 0 0 0 0 0 0 0
Wind_Speed
2 2 1 2 5 6 7 8 9 9 9 9 9 10 9 10 10 10 10 9 9 9 10 10 10 11 11 11 11 11 11 11 11 10 10 10 10 10 10 8 6 7 9
2 3 1 2 6 6 7 8 8 9 9 9 9 9 9 9 9 9 9 9 9 9 10 10 10 11 11 11 10 10 10 10 10 9 8 7 9 9 9 9 8 7 9
3 4 4 3 6 7 7 7 7 8 9 9 9 9 9 9 9 9 8 8 8 8 9 10 10 10 10 10 10 10 9 9 8 7 3 4 7 8 8 8 8 8 7
3 4 4 4 6 8 8 7 7 7 8 8 8 8 8 8 8 8 8 8 7 8 8 9 9 9 9 9 9 9 9 9 7 3 3 4 5 7 7 7 7 6 6
4 4 5 6 7 8 8 8 7 7 7 8 8 8 8 8 8 8 7 7 7 7 8 8 8 8 8 9 9 8 8 8 5 3 4 4 4 6 6 6 5 6 5
5 4 6 6 8 8 8 8 8 7 7 7 7 7 7 7 7 7 7 7 7 7 7 8 7 8 8 8 8 8 7 6 2 4 4 4 4 5 5 4 4 4 4
5 5 6 7 7 8 7 8 8 7 7 7 8 7 7 6 7 7 7 7 7 7 7 7 7 7 7 7 7 7 6 4 3 4 4 4 5 5 4 4 4 4 5
5 5 5 7 7 7 7 8 8 8 8 7 7 7 7 7 7 7 6 6 6 7 6 6 6 6 6 6 6 6 6 3 2 3 4 4 6 5 5 5 5 4 5
5 5 4 5 5 6 7 7 7 7 8 7 7 7 7 7 7 7 7 6 6 6 6 6 6 6 6 6 6 6 5 4 2 3 3 3 6 6 6 5 5 5 5
5 4 4 3 3 4 4 6 7 7 7 7 7 7 7 6 6 6 6 7 6 6 5 5 5 5 6 6 5 5 4 1 2 2 2 4 5 5 5 5 5 5 5
4 3 3 3 3 3 3 4 5 5 6 5 5 5 3 2 3 3 6 7 6 6 5 5 5 5 5 5 5 4 1 1 2 2 3 6 5 5 5 5 5 5 5
3 3 2 2 2 2 2 2 2 2 2 2 2 2 1 2 2 2 5 5 6 5 5 6 5 3 1 1 2 1 1 2 2 2 3 6 5 5 5 5 5 5 5
3 3 2 2 2 2 2 1 1 1 1 1 2 2 1 1 1 1 1 2 2 3 3 3 2 2 2 2 2 1 2 1 1 1 3 6 5 5 5 5 5 5 5
4 3 2 2 2 2 2 1 1 1 1 1 1 1 1 1 1 1 1 1 1 1 2 2 2 3 2 2 2 2 2 1 1 1 3 7 6 6 6 5 5 6 5
4 3 2 2 2 2 2 1 1 1 1 1 1 1 1 1 1 1 1 1 2 1 1 1 1 2 2 2 2 2 1 2 1 1 2 6 7 7 7 6 6 6 6
4 4 3 2 2 2 2 1 1 1 1 1 1 1 1 1 1 1 1 1 1 1 1 1 1 1 1 2 2 2 2 2 1 1 1 3 5 7 7 7 8 8 8
5 4 3 3 2 2 2 2 1 1 1 1 1 1 2 1 1 0 1 1 1 1 1 1 2 1 1 2 2 2 2 2 2 2 2 2 2 5 7 8 8 8 9
5 5 4 3 3 2 2 2 1 1 1 1 1 1 1 1 1 1 1 1 1 1 1 1 1 1 1 2 2 2 2 2 2 2 2 2 2 3 5 8 9 10 9
5 5 5 4 4 3 2 2 2 1 1 0 0 1 1 1 1 1 1 1 1 1 1 1 1 1 1 2 2 2 2 1 1 1 2 2 3 3 3 5 7 9 10
5 5 5 4 4 3 2 2 2 2 1 1 1 1 1 1 1 1 1 1 1 1 1 1 1 1 1 1 2 2 2 1 1 1 1 2 2 3 3 4 4 5 8
6 6 5 5 4 4 3 3 2 2 1 1 1 1 1 1 1 1 1 1 1 1 1 1 1 1 1 2 1 2 1 1 1 1 2 1 2 2 3 4 4 4 4
7 6 6 5 5 4 3 3 2 2 1 1 1 1 1 1 1 1 1 1 1 0 1 1 1 0 1 2 2 2 2 1 0 2 2 2 2 2 3 4 5 5 5
7 7 5 6 5 5 4 3 3 2 2 1 1 1 1 1 1 1 1 1 1 1 0 1 0 1 0 0 1 2 2 2 3 1 2 2 2 3 3 4 4 5 5
8 6 6 6 5 5 5 5 5 4 3 3 2 1 1 1 1 1 1 1 2 1 1 1 1 1 1 1 1 1 3 2 3 3 2 2 3 4 4 4 4 4 4
7 7 6 6 6 5 5 5 5 4 3 2 2 2 2 2 2 1 2 1 1 1 1 1 1 1 1 1 1 1 2 2 3 4 5 4 4 3 4 4 4 4 4
6 6 6 6 6 6 6 6 5 5 5 4 3 2 2 1 2 2 2 1 1 1 1 1 1 1 1 1 1 1 2 2 2 3 4 5 5 4 5 4 3 4 4
Wind_Direction
163 170 154 123 113 106 103 103 101 100 99 98 96 93 89 87 86 84 81 79 78 79 80 81 82 81 78 75 72 70 70 68 69 68 69 70 71 71 68 58 54 68 65
164 164 133 116 114 107 104 103 101 102 101 99 97 94 90 87 85 84 81 78 76 76 78 82 82 80 78 75 73 72 69 68 68 65 66 77 70 68 66 58 49 57 60
138 145 142 111 111 104 100 98 100 103 102 98 95 93 92 89 86 83 81 79 76 77 79 79 82 81 79 76 75 71 67 67 66 61 60 76 77 70 66 60 59 57 54
123 133 123 102 107 104 99 95 98 102 102 98 96 93 92 90 87 84 80 78 76 78 78 79 82 81 79 77 74 71 67 63 60 48 62 64 69 65 64 64 59 53 49
112 111 99 86 98 99 98 95 94 99 102 101 97 92 90 89 88 85 81 77 77 76 75 76 81 79 76 74 71 67 66 63 56 54 60 59 62 57 53 53 52 46 43
110 106 98 81 87 90 93 94 92 93 94 97 96 93 90 88 87 84 81 77 74 74 74 74 77 78 77 74 70 66 64 58 43 57 54 51 53 52 46 43 43 44 44
110 104 100 78 84 89 89 90 90 85 86 89 86 85 84 84 85 81 79 76 74 73 73 71 73 77 75 75 73 68 63 44 39 50 44 46 46 38 38 41 42 48 46
113 107 102 77 74 84 83 83 85 86 81 82 81 77 75 71 69 73 73 74 73 71 68 68 71 72 71 72 71 67 61 30 54 49 43 45 37 30 33 37 40 39 35
113 111 107 106 96 82 74 73 76 78 78 77 77 72 67 65 64 59 59 61 65 67 64 61 68 67 64 67 68 64 56 23 32 47 37 40 30 27 30 35 39 39 38
108 107 106 104 107 108 100 74 70 72 73 74 72 70 68 68 66 59 58 54 55 58 59 58 66 63 60 62 66 61 52 3 33 35 27 36 26 24 25 29 32 35 31
107 104 104 102 99 101 100 88 84 78 75 82 83 76 78 85 76 72 57 53 51 50 51 59 65 65 64 72 65 54 42 22 24 18 22 27 19 14 16 19 18 22 23
133 121 112 111 104 103 97 105 102 97 96 83 84 91 85 68 60 57 74 60 52 49 59 59 56 71 57 65 75 54 27 27 22 22 29 23 11 4 5 11 10 8 11
152 138 130 122 123 117 108 105 94 93 91 80 66 52 53 63 72 59 73 80 78 72 64 63 50 30 25 20 3 13 16 9 19 21 30 23 9 1 360 1 4 3 357
165 154 141 140 137 132 125 111 103 108 106 83 61 51 62 69 50 63 61 44 48 52 45 41 31 28 18 17 7 10 9 360 9 12 31 26 16 11 6 359 356 354 350
180 170 152 146 147 140 132 119 109 107 103 89 61 36 27 72 70 73 78 62 46 36 34 29 33 31 19 8 2 1 359 358 353 3 39 35 19 11 7 1 354 350 346
185 179 167 163 158 149 143 134 119 98 100 88 64 39 23 27 48 70 79 70 54 41 22 8 11 10 17 10 356 347 335 337 347 348 2 40 33 15 8 3 358 354 346
184 180 176 173 168 168 154 138 125 108 100 82 68 53 41 29 40 70 79 68 52 52 43 27 19 8 18 16 7 354 345 341 341 351 354 0 22 32 22 11 6 359 355
183 183 178 174 171 169 156 147 134 123 104 90 80 67 53 32 27 58 56 46 32 52 63 49 19 11 17 9 356 348 339 343 350 352 357 2 2 8 26 21 9 2 356
188 185 181 177 177 172 162 152 137 129 105 73 92 80 70 53 33 61 64 43 34 59 63 39 5 353 5 3 346 337 330 334 337 348 5 7 5 1 1 17 11 3 355
190 188 181 175 176 169 163 156 144 131 110 67 42 56 67 70 56 66 79 61 51 57 55 35 3 356 347 351 343 333 327 313 312 347 355 357 1 358 357 352 350 359 357
188 187 183 179 176 175 173 179 180 174 159 129 60 55 61 59 61 72 80 85 65 59 48 35 25 11 11 6 338 332 313 297 291 326 322 320 343 350 349 347 345 342 340
191 191 188 184 181 185 184 176 177 168 177 158 140 99 76 74 64 76 87 82 70 63 68 60 59 33 5 350 317 303 297 266 19 314 310 323 328 331 337 342 346 342 337
196 195 192 185 182 183 176 161 151 154 161 172 173 163 97 89 73 71 92 88 72 45 45 32 338 238 266 328 331 304 295 301 329 302 327 325 324 324 330 338 341 341 339
199 193 192 184 178 175 175 180 183 185 185 188 179 176 135 112 98 84 89 79 73 60 47 32 353 295 265 279 302 313 303 302 282 293 287 310 324 323 328 330 332 336 337
196 191 191 183 178 176 183 186 189 189 179 164 157 162 146 126 110 93 89 86 81 67 52 35 9 349 307 287 286 293 289 288 275 275 287 299 305 312 320 322 321 324 333
193 191 190 184 180 180 184 187 191 185 175 171 172 172 158 134 117 104 99 89 75 54 31 30 21 14 356 341 310 295 292 286 291 286 286 297 302 310 313 312 318 325 331